Home > Weather > Herne > Past weeks

Flag for Germany Weather for the Past 2 Weeks in Herne, North Rhine-Westphalia, Germany

Now
45 °F

Light rain. Partly sunny.


Feels Like: 37 °F
Forecast: 39 / 47 °F
Wind: 18 mph from Southwest

Location: Dortmund / Wickede

Current Time: Feb 8, 2016 at 10:07:53 AM

Latest Report: Feb 8, 2016 at 9:20 AM


Visibility: 5 mi

Pressure: 29.30 "Hg

Humidity: 81%

Dew point: 39 °F

Location of HerneLocation

Historic Weather in Herne — Graph

°F

Herne Temperature Yesterday

Maximum temperature yesterday: 52 °F (at 8:50 AM)
Minimum temperature yesterday: 43 °F (at 8:50 PM)
Average temperature yesterday: 47 °F

High & Low Weather Summary for the Past Weeks

 TemperatureHumidityPressure
High54 °F (Jan 25, 3:20 PM)94% (Feb 1, 7:20 AM)30.42 "Hg (Feb 1, 7:20 AM)
Low36 °F (Jan 28, 7:50 PM)53% (Jan 28, 2:20 PM)29.27 "Hg (Feb 8, 7:20 AM)
Average45 °F76%30.00 "Hg
* Reported Jan 24 8:20 AM — Feb 8 8:50 AM, Herne, Weather by CustomWeather, © 2016

Note: Actual official high and low records may vary slightly from our data, if they occured in-between our weather recording intervals... More about our weather records

Advertising

Herne Weather History for the Previous 24 Hours

 ConditionsComfort  
Time TempWeatherWind HumidityBarometerVisibility
8:50 AM
Mon, Feb 8
45 °FLight rain. Partly sunny.23 mph81%29.27 "Hg6 mi
8:20 AM45 °FLight rain. Partly sunny.24 mph81%29.27 "HgN/A
7:50 AM45 °FLight rain. Partly cloudy.26 mph76%29.27 "Hg5 mi
7:20 AM45 °FLight rain. Passing clouds.23 mph76%29.27 "HgN/A
6:50 AM45 °FLight rain. Passing clouds.22 mph76%29.30 "HgN/A
6:20 AM45 °FLight rain. Passing clouds.26 mph71%29.33 "HgN/A
5:50 AM46 °FLight rain. Passing clouds.26 mph62%29.33 "HgN/A
5:20 AM45 °FPassing clouds.23 mph66%29.33 "HgN/A
10:50 PM
Sun, Feb 7
43 °FClear.17 mph61%29.59 "Hg10 mi
10:20 PM43 °FClear.17 mph61%29.59 "Hg10 mi
9:50 PM43 °FClear.16 mph61%29.62 "Hg10 mi
9:20 PM43 °FClear.15 mph66%29.62 "Hg10 mi
8:50 PM43 °FClear.13 mph66%29.62 "Hg10 mi
8:20 PM45 °FClear.14 mph57%29.62 "Hg10 mi
7:50 PM45 °FClear.18 mph57%29.62 "Hg10 mi
7:20 PM45 °FClear.15 mph61%29.62 "Hg10 mi
6:50 PM45 °FClear.17 mph61%29.62 "Hg10 mi
6:20 PM45 °FClear.17 mph61%29.59 "Hg10 mi
5:50 PM46 °FClear.16 mph57%29.59 "Hg10 mi
5:20 PM45 °FSunny.18 mph61%29.59 "Hg10 mi
4:50 PM46 °FSunny.20 mph57%29.59 "Hg10 mi
4:20 PM46 °FScattered clouds.15 mph62%29.56 "HgN/A
3:50 PM46 °FSunny.18 mph62%29.56 "Hg10 mi
3:20 PM46 °FPartly sunny.14 mph62%29.56 "HgN/A
2:50 PM46 °FPartly sunny.18 mph62%29.56 "HgN/A
2:20 PM46 °FPartly sunny.17 mph66%29.56 "HgN/A
1:50 PM48 °FPartly sunny.18 mph66%29.53 "HgN/A
1:20 PM48 °FPartly sunny.18 mph66%29.53 "HgN/A
12:50 PM48 °FSunny.15 mph66%29.53 "Hg10 mi
12:20 PM46 °FScattered clouds.16 mph71%29.53 "HgN/A
11:50 AM46 °FPartly sunny.17 mph71%29.53 "HgN/A
11:20 AM48 °FPartly sunny.15 mph71%29.50 "HgN/A
10:50 AM46 °FPartly sunny.16 mph76%29.50 "HgN/A
10:20 AM50 °FSprinkles. Partly sunny.22 mph67%29.47 "HgN/A
Weather by CustomWeather, © 2016

See weather overviewHow to use our weather pages